Location: Cucq
(50.4773°N, 1.6202°E)
Time: 21:32:55
(UTC+00:00)

Cosmos 2082 - Pass Details

Date: 07 August 2020
Orbit: 834 x 855 km, 71.0° (Epoch: 21 September)

Event Time Altitude Azimuth Distance (km) Brightness Sun altitude
Exits shadow 03:34:42 10° 241° (WSW) 2,465 5.5 -8.3°
Reaches altitude 10° 03:34:46 10° 241° (WSW) 2,445 5.4 -8.3°
Maximum altitude 03:40:01 40° 310° (NW) 1,221 4.5 -7.6°
Drops below altitude 10° 03:45:17 10° 20° (NNE) 2,456 7.1 -6.9°
Sets 03:47:54 0° 28° (NNE) 3,394 8.2 -6.6°
